ICS-EF (ISS DEB) (45265 NORAD) Tracking and Keplerian Element Data

This shows tracking and keplerian element data for the satellite.

Feedback or suggestion? Click here.




ElementValue
Catalog45265
NameICS-EF (ISS DEB)
Epoch Orbit2073
Epoch Day185.95601868
Epoch Year2020
RAAN265.1605
Inclination51.6433
Eccentricity0.0006012
Argument of Perigee70.5896
Mean Anonmoly289.5742
Mean Motion15.49805788
Decay Rate1.023E-05
L11 45265U 98067RJ 20185.95601868 .00001023 00000-0 26107-4 0 9997
L22 45265 51.6433 265.1605 0006012 70.5896 289.5742 15.49805788 20739

Live tracking and technical data element details for ICS-EF (ISS DEB) (NORAD 45265). ICS-EF (ISS DEB) can be tracked NOW for your location showing map with azimuth and elevation plus other details from your city location.

Track the satellite on the map from your city or location and see movement details for azimuth, elevation, latitude, longitude, range, height, and movement on the map or in text.







IsCatalogInMostPopularTable: catalog: 45265, numindb: 550
Update: records affected: 1



GetName: 45265 ICS-EF (ISS DEB)

Hit Count: updated at: Sun, 05 Jul 2020 17:50:58 GMT